Starlink 11567

operational
NORAD ID: 62909 Int'l Des: 2025-027 Owner: SPXS Country: US Constellation: starlink
LEOCIRCULAR

Über Starlink 11567

Beschreibung wird geladen...

Live-Position

3D-Globus wird geladen...

Nächste Überflüge

Höhenverlauf

Altitude vs Time

uPlot chart will show altitude changes over time

Zweizeiliger Elementsatz

1 62909U 25027C 25350.81074466 .00194129 00000-0 14812-2 0 9997
2 62909 43.0036 127.5728 0002628 276.9764 83.0805 15.70841214 50119
Epoch: 16. Dez. 2025 • Age: 10 hours

Aktueller Status

Höhe 356.1 km
Geschwindigkeit 7.70 km/s
Subsatellitenpunkt 15.47°N, 122.67°E
Startdatum 8. Feb. 2025
Alter 0.8 years
Typ internet

Technische Details

Klassifizierung Payload
Masse 960.00 kg
Trockenmasse 910.00 kg
Gesamtmasse 960.00 kg
Länge 0.30 m
Durchmesser 4.10 m
Spannweite 29.00 m
Form Box + pan
Hersteller SPXS
Bus-Typ Starlink V2MD
Phasenstatus In Orbit
Besitzer/Staat SPXS/US

Große Konstellationen

Loading constellations...